Location: Chaumontel
(49.1247°N, 2.4324°E)
Time: 01:52:53
(UTC+00:00)

IRIDIUM 103 - Pass Details

Date: 21 May 2025
Orbit: 775 x 779 km, 86.4° (Epoch: 12 June)

Event Time Altitude Azimuth Distance (km) Brightness Sun altitude
Exits shadow 23:14:28 10° 106° (ESE) 2,335 6.6 -20.1°
Reaches altitude 10° 23:14:28 10° 106° (ESE) 2,333 6.6 -20.1°
Maximum altitude 23:17:14 15° 74° (ENE) 2,031 6.6 -20.2°
Drops below altitude 10° 23:19:59 10° 42° (NE) 2,341 7.4 -20.2°
Sets 23:23:22 0° 19° (NNE) 3,274 8.7 -20.3°
